GEFSCGP_850_meantemp_132.txt.gz
Temperature
26 26 26 27 28 28 28 28 27 28 28 28 27 26 25 25 24 23 22 21 20 18 17 16 15 15 15 15 15 15 16 16 16 16 15 15 15 15 15 15 15 15 15 15
26 26 28 29 29 28 28 28 28 28 28 28 27 26 26 25 24 23 22 21 20 18 17 16 15 14 14 14 14 14 15 15 15 15 15 15 15 14 14 14 14 14 14 14
26 27 28 28 28 27 27 27 27 27 27 28 26 26 25 25 24 23 22 21 20 18 17 15 15 14 13 13 13 14 14 14 14 14 14 14 14 14 14 14 14 14 14 14
27 28 28 27 27 27 26 28 27 27 26 26 26 24 24 24 24 23 22 20 19 18 16 15 14 14 13 13 13 13 13 14 14 14 14 14 13 13 13 13 13 13 13 13
27 28 27 27 27 28 27 28 28 27 26 26 25 24 23 23 22 22 21 20 19 17 16 15 14 13 13 12 12 12 13 13 13 13 13 13 13 12 12 12 12 12 12 12
27 28 28 28 28 28 28 28 27 27 26 24 24 23 22 22 22 22 20 19 18 17 16 14 14 13 12 12 12 12 12 12 12 12 12 12 12 12 12 12 12 12 12 12
26 27 28 28 27 28 27 26 24 23 22 22 22 22 22 23 23 22 20 18 17 16 15 14 13 13 12 11 11 11 11 11 11 11 11 11 11 11 11 11 11 11 11 11
24 25 27 28 27 26 26 26 23 22 21 21 21 21 21 23 23 21 20 18 17 16 15 14 13 12 12 11 11 11 10 10 10 10 11 11 11 10 11 10 10 10 10 10
24 24 27 28 28 28 26 26 26 25 24 22 22 21 21 21 21 20 19 18 16 16 15 14 13 12 11 11 10 10 10 10 10 10 10 10 10 10 10 10 10 10 10 10
25 24 26 27 28 28 27 27 26 24 22 22 22 21 20 19 20 20 19 18 16 15 14 13 12 11 11 10 10 10 9 9 9 9 9 9 9 9 9 9 9 9 9 9
26 25 25 26 26 26 26 26 25 25 24 22 21 21 21 20 20 19 19 17 16 15 14 12 12 11 11 10 10 9 9 9 9 9 9 9 9 9 9 8 8 8 8 8
26 25 24 25 26 26 26 26 25 23 23 23 22 21 22 21 20 20 18 17 16 14 13 12 11 11 10 10 9 9 8 8 8 8 8 8 8 8 8 8 8 8 8 8
24 23 22 22 23 24 24 25 25 25 24 23 22 20 21 21 20 19 18 16 15 13 12 12 11 10 10 9 9 8 8 8 8 8 8 8 8 8 7 7 7 8 8 8
23 22 22 21 21 21 22 24 25 24 23 23 22 21 20 20 19 17 16 15 14 13 12 11 10 10 9 9 9 8 8 8 8 7 7 7 7 7 7 7 7 7 7 7
23 22 22 23 23 23 23 24 24 24 24 23 23 22 20 19 19 17 15 14 13 12 11 11 10 10 9 9 8 8 8 7 7 7 7 7 7 7 7 7 7 7 7 7
22 22 22 22 23 24 24 24 24 24 24 23 23 21 20 19 17 16 15 14 13 12 11 10 10 9 9 8 8 8 7 7 7 7 7 7 7 7 7 7 7 6 6 6
22 21 21 21 23 23 22 23 23 23 23 23 21 20 20 18 17 16 15 14 12 11 11 10 9 9 8 8 8 7 7 7 7 7 7 7 6 7 6 6 6 6 6 6
21 20 20 21 22 20 21 23 23 23 22 22 21 20 19 18 16 15 14 13 12 11 10 9 9 8 8 8 7 7 7 7 7 7 7 7 6 6 6 6 6 6 6 6
21 20 20 21 20 21 21 22 22 21 20 21 20 19 18 16 15 14 13 12 11 10 9 9 9 8 8 7 7 7 7 7 7 7 7 6 6 6 6 6 6 6 6 6
22 21 20 20 20 19 19 21 21 21 19 19 19 18 17 17 16 14 12 11 10 10 9 9 8 8 7 7 7 7 7 7 7 6 6 6 6 6 6 6 6 6 6 6
21 20 20 20 19 19 19 21 21 19 18 19 18 17 17 16 15 13 11 10 10 9 9 8 8 8 7 7 7 7 7 7 7 6 6 6 6 6 6 6 6 6 6 6
20 20 20 19 19 18 19 20 19 18 18 18 17 16 15 14 13 12 11 10 9 9 8 8 8 7 7 7 7 7 7 7 6 6 6 6 6 6 6 6 6 6 6 6
20 19 19 18 18 18 18 18 18 18 18 17 17 15 14 13 12 11 10 9 9 9 8 8 8 7 7 7 7 7 7 6 6 6 6 6 6 6 6 6 6 6 6 6
20 20 20 18 18 19 18 18 18 17 17 16 16 15 14 12 11 11 10 9 9 8 8 8 8 7 7 7 7 7 7 6 6 6 6 6 6 6 6 6 6 6 7 7
19 20 19 18 19 19 18 17 17 16 16 16 15 14 13 12 11 10 10 9 9 8 8 8 8 8 7 7 7 7 7 7 7 7 7 7 7 7 6 7 6 6 7 7
19 19 18 18 18 18 17 17 16 16 15 15 14 14 13 12 11 10 10 9 9 8 8 8 8 8 7 7 7 7 7 7 7 7 7 7 7 7 7 7 7 7 7 7

GEFSCGP_850_meantemp_138.txt.gz
Temperature
22 19 19 19 20 21 21 21 21 22 22 21 20 19 19 18 17 16 16 15 15 15 15 15 15 15 15 15 15 15 15 15 15 15 15 15 15 14 14 14 14 14 14 14
19 19 20 21 22 22 22 21 21 22 23 21 19 19 18 18 17 17 16 15 15 15 14 14 14 15 15 15 14 14 14 14 14 15 15 14 14 14 14 14 14 14 14 14
19 20 22 22 22 22 22 21 22 22 22 21 20 18 18 17 17 17 16 16 15 15 14 14 14 14 14 14 14 14 14 14 14 14 14 14 13 13 13 13 13 13 13 13
20 21 23 23 23 23 21 23 23 22 20 19 19 17 17 17 16 16 16 15 15 14 14 14 14 13 13 13 13 13 13 13 13 13 13 13 13 13 13 13 12 12 13 13
21 23 23 23 24 23 22 23 23 22 20 18 18 17 17 16 16 16 15 15 15 14 14 14 13 13 13 13 13 13 13 13 13 13 13 12 12 12 12 12 12 12 12 12
22 23 23 23 24 24 23 22 20 18 17 17 18 17 17 15 16 16 15 14 14 14 14 13 13 12 12 12 12 12 12 12 12 12 12 12 12 11 11 11 11 12 11 11
21 22 23 24 23 23 22 19 17 18 16 17 17 17 16 16 17 16 15 14 14 14 13 13 12 12 12 12 11 11 11 11 11 11 11 11 11 11 11 11 11 11 11 11
20 20 22 23 23 22 21 19 17 18 17 16 17 16 16 16 16 16 15 14 14 13 13 13 12 12 12 11 11 11 11 10 10 10 10 10 10 10 10 10 10 10 10 10
19 20 22 23 23 22 21 19 18 16 17 16 16 16 16 16 15 15 14 13 13 13 13 12 12 12 11 11 11 10 10 10 10 9 9 9 9 9 9 9 9 9 9 9
20 20 21 23 23 22 21 19 16 16 16 16 16 16 16 15 15 14 14 13 12 12 12 12 11 11 11 10 10 10 9 9 9 9 9 9 9 9 9 9 9 9 9 9
19 19 20 21 21 20 20 20 17 15 16 16 16 16 17 16 15 14 13 13 12 12 12 11 11 11 10 10 10 9 9 9 9 9 8 8 8 8 8 8 8 8 8 8
19 17 18 19 20 21 20 19 17 16 16 15 15 15 17 15 15 14 13 12 12 12 12 11 11 10 10 10 9 9 9 8 8 8 8 8 8 8 8 8 8 8 8 8
19 17 17 18 18 19 19 19 18 16 15 15 15 16 15 15 14 14 13 12 12 11 11 11 10 10 9 9 9 9 8 8 8 8 8 8 8 8 8 7 8 7 7 7
19 16 16 17 17 18 19 19 18 16 15 15 16 16 15 14 13 13 12 12 11 11 11 10 10 10 9 9 8 8 8 8 8 7 7 7 7 7 7 7 7 7 7 7
17 17 18 18 19 19 19 19 19 18 17 16 16 16 15 14 13 13 12 11 11 10 10 10 10 9 9 8 8 8 8 7 7 7 7 7 7 7 7 7 7 7 7 7
15 16 17 17 19 19 19 18 19 18 18 17 16 15 14 14 13 12 12 11 10 10 10 10 9 9 9 8 8 8 7 7 7 7 7 7 7 7 7 7 7 7 7 7
15 15 15 16 17 18 17 17 17 17 17 16 15 14 13 12 12 12 11 11 10 10 10 10 9 9 8 8 8 8 7 7 7 7 7 7 7 7 7 7 7 7 7 6
15 14 13 14 16 16 16 17 17 17 16 16 15 14 13 12 12 12 12 11 10 10 10 9 9 9 8 8 8 7 7 7 7 7 7 7 7 6 6 6 6 6 6 6
14 14 14 14 15 16 16 17 16 16 15 15 14 13 12 12 12 11 11 11 11 10 10 10 9 8 8 8 7 7 7 7 7 7 6 6 6 6 6 6 6 6 6 6
14 14 14 14 15 15 15 17 17 16 14 14 14 13 12 12 11 10 11 11 10 10 10 9 8 8 8 7 7 7 7 7 7 6 6 6 6 6 6 6 6 6 6 6
15 14 14 14 14 15 15 16 17 15 14 14 14 13 13 12 12 11 11 10 10 10 9 9 8 8 7 7 7 7 7 6 6 6 6 6 6 6 6 6 6 6 6 6
14 14 14 13 14 14 15 15 15 14 14 14 14 14 13 12 12 11 10 10 10 9 9 8 8 7 7 7 7 7 7 6 6 6 6 6 6 6 6 6 6 6 6 6
14 13 12 13 13 14 15 15 15 15 15 14 14 14 13 12 11 10 10 10 9 9 9 8 8 7 7 7 7 7 7 6 6 6 6 6 6 6 6 6 6 6 6 6
14 14 13 13 14 14 15 15 15 15 15 15 14 13 13 12 11 10 10 9 9 9 8 8 8 7 7 7 7 7 7 7 6 6 6 6 6 6 6 6 6 6 6 6
14 14 13 13 13 14 15 15 15 15 14 14 13 13 12 12 11 10 10 9 9 9 8 8 8 8 7 7 7 7 7 7 7 6 7 7 7 7 7 7 7 7 6 6
14 13 13 13 14 14 14 15 15 14 14 13 13 12 12 12 11 11 10 9 9 9 8 8 8 8 7 7 7 7 7 7 7 7 7 7 7 7 7 7 7 7 7 7

GEFSCGP_850_meantemp_144.txt.gz
Temperature
19 17 17 18 18 19 19 19 19 19 19 17 17 16 16 15 15 15 14 14 14 14 14 15 15 15 15 15 15 15 15 15 15 15 15 15 14 14 14 14 14 14 14 14
17 18 19 19 18 19 19 19 18 18 18 17 16 16 16 16 15 15 14 14 14 14 14 14 14 14 14 14 15 14 14 14 14 14 14 14 14 14 14 13 13 13 13 13
19 19 19 19 19 19 19 18 19 18 18 17 17 16 16 16 15 15 14 14 14 14 14 14 14 14 14 14 14 14 14 14 14 13 13 13 13 13 13 13 13 13 13 13
18 19 20 20 20 20 19 19 19 19 17 16 17 16 16 15 15 15 14 14 14 13 13 14 14 14 14 14 13 13 13 13 13 13 13 13 13 13 12 12 12 12 12 12
19 20 20 20 20 20 19 19 18 18 16 16 16 16 15 15 15 15 14 14 13 13 13 13 13 13 13 13 13 13 13 13 12 12 12 12 12 12 12 12 12 12 12 12
19 20 20 20 20 20 19 18 16 15 15 16 16 16 16 14 15 15 14 14 13 13 13 13 13 12 12 12 12 12 12 12 12 12 12 11 11 11 11 11 11 11 11 11
19 19 20 20 20 19 18 17 16 17 15 15 15 15 15 15 15 15 14 14 13 13 13 12 12 12 12 11 11 12 12 11 11 11 11 11 11 11 11 11 10 10 10 10
19 18 20 20 20 19 18 17 16 17 16 15 15 15 15 15 15 15 15 14 13 12 12 12 12 12 11 11 11 11 11 11 10 10 10 10 10 10 10 10 10 10 10 10
18 19 20 20 20 19 18 16 16 15 15 15 14 15 15 15 14 13 13 12 12 12 12 11 11 11 11 11 11 11 10 10 10 10 10 9 9 9 9 9 9 9 9 9
18 19 19 19 20 18 17 15 14 14 15 15 16 15 15 15 14 13 12 12 11 11 11 11 11 11 10 10 10 10 10 10 10 9 9 9 9 9 9 9 9 8 8 8
18 18 18 19 18 18 18 16 14 13 14 15 15 15 15 14 14 13 12 12 11 11 11 11 10 10 10 10 9 9 9 9 9 9 8 8 8 8 8 8 8 8 8 8
16 15 16 17 18 18 18 17 14 15 15 13 14 14 15 14 13 13 12 12 11 11 10 10 10 10 9 9 9 9 9 9 8 8 8 8 8 8 8 8 8 8 8 8
16 15 16 17 17 17 17 16 15 13 12 12 14 15 14 13 12 12 12 11 11 10 10 10 9 9 9 9 9 9 8 8 8 8 8 8 8 7 7 7 7 7 7 8
15 14 15 16 16 16 17 16 15 14 13 13 14 15 14 12 12 11 11 11 10 10 10 9 9 9 9 9 8 8 8 8 7 7 7 7 7 7 7 7 7 7 7 7
14 15 15 15 16 16 17 16 16 15 14 14 15 15 14 12 12 11 11 10 10 10 9 9 9 9 9 8 8 8 8 7 7 7 7 7 7 7 7 7 7 7 7 7
13 14 15 15 16 16 16 16 16 16 15 15 15 14 13 12 12 11 10 10 10 9 9 9 9 9 8 8 8 8 7 7 7 7 7 7 7 7 7 7 7 6 7 6
12 13 14 14 15 16 15 15 15 15 15 14 14 14 12 11 11 11 10 10 10 10 9 9 9 9 8 8 8 7 7 7 7 7 7 7 6 6 6 6 6 6 6 6
12 12 11 13 15 15 15 15 15 15 14 14 13 12 12 12 11 11 11 11 10 10 10 9 9 9 8 8 7 7 7 7 7 7 6 6 6 6 6 6 6 6 6 6
11 12 12 12 14 14 15 15 15 15 14 13 12 11 11 11 11 11 11 11 11 10 10 9 9 9 8 8 7 7 7 7 7 6 6 6 6 6 6 6 6 6 6 6
11 11 11 12 14 14 15 15 15 15 14 13 12 11 11 11 11 10 11 11 10 10 9 9 9 8 8 7 7 7 7 7 6 6 6 6 6 6 6 6 6 6 6 6
12 12 12 12 13 13 14 14 15 14 14 13 12 12 11 11 11 11 11 10 10 10 9 9 8 8 8 7 7 7 7 6 6 6 6 6 6 6 6 6 6 6 6 6
12 12 12 11 13 13 14 14 14 13 13 13 13 13 12 12 11 11 11 10 10 9 9 8 8 8 7 7 7 7 7 6 6 6 6 6 6 6 6 6 6 6 6 6
11 11 11 11 12 13 13 13 14 14 14 14 13 13 12 12 11 10 10 10 9 9 9 8 8 8 7 7 7 7 6 6 6 6 6 6 6 6 6 6 6 6 6 6
12 11 11 11 12 13 13 14 14 14 14 14 14 13 12 12 11 10 10 10 9 9 9 8 8 7 7 7 7 7 6 6 6 6 6 6 6 6 6 6 6 6 6 6
12 11 11 12 12 13 13 14 14 14 14 14 13 13 12 12 11 10 10 10 9 9 9 8 8 8 7 7 7 7 6 6 6 6 6 6 6 6 6 6 6 6 6 6
11 11 11 12 13 12 13 14 14 14 13 13 13 12 12 11 11 11 10 10 9 9 9 8 8 8 7 7 7 7 6 6 6 6 6 6 7 7 6 6 6 6 6 7

GEFSCGP_850_meantemp_150.txt.gz
Temperature
24 26 26 26 27 27 27 27 26 26 26 26 25 24 23 21 21 20 19 18 17 16 15 14 14 14 14 14 14 14 14 14 14 14 14 14 14 14 14 14 14 14 14 14
25 25 26 26 26 26 26 26 26 25 25 25 25 24 23 22 21 20 19 18 17 16 15 14 14 14 14 14 14 14 14 14 14 14 14 14 13 13 13 13 13 13 13 13
25 26 26 25 26 26 26 26 26 25 24 25 24 23 23 22 21 20 19 18 17 16 15 14 14 13 13 13 13 13 13 13 13 13 13 13 13 12 12 12 12 12 13 13
26 25 25 25 26 26 26 26 26 25 25 25 25 24 24 23 21 20 19 18 17 16 15 14 14 13 13 13 13 13 13 13 13 13 13 13 12 12 12 12 12 12 12 12
25 25 25 25 26 26 26 26 26 26 25 25 25 24 25 23 22 22 20 18 17 16 15 14 13 13 13 12 12 13 13 13 13 12 12 12 12 11 11 11 11 11 11 11
25 25 26 25 26 26 25 25 25 25 26 24 25 24 24 24 23 23 21 19 17 16 15 14 13 12 12 12 12 12 12 12 12 12 12 12 11 11 11 11 11 11 11 11
24 25 25 25 25 25 25 25 24 24 24 24 25 24 24 24 23 23 21 19 17 15 14 14 13 12 12 12 11 11 11 11 11 11 11 11 11 11 10 10 10 11 11 10
24 24 25 25 25 25 25 25 24 23 24 24 24 24 24 23 21 20 19 18 16 15 14 13 12 12 12 11 11 11 11 11 11 10 10 10 10 10 10 10 10 10 10 10
24 24 25 25 25 26 25 25 26 25 24 24 24 24 23 21 20 19 18 16 15 14 13 13 12 12 11 11 11 10 10 10 10 10 10 10 9 9 9 9 9 9 9 9
25 24 25 25 25 25 26 25 25 24 23 22 23 24 24 21 20 19 17 16 14 13 12 12 11 11 11 11 10 10 10 10 9 9 9 9 9 9 9 9 9 9 9 9
25 24 24 24 24 25 24 24 24 25 24 23 23 23 22 21 20 19 18 16 14 13 12 11 11 11 10 10 10 10 10 9 9 9 9 8 8 8 8 8 8 8 8 8
24 24 23 24 24 24 25 24 24 23 23 23 23 22 20 21 20 18 17 15 13 12 12 11 10 10 10 10 10 9 9 9 9 9 8 8 8 8 8 8 8 8 8 8
23 23 22 23 23 23 23 23 24 24 23 23 23 22 19 20 18 17 16 14 12 12 11 10 10 10 10 9 9 9 9 9 8 8 8 8 8 8 8 8 8 8 8 8
22 22 22 22 22 23 23 23 23 23 23 23 23 21 20 19 18 16 15 13 12 11 11 10 10 10 9 9 9 9 8 8 8 8 8 8 8 8 8 8 7 7 7 7
22 22 22 22 23 22 22 22 22 22 23 22 22 21 20 19 18 16 14 13 12 11 10 10 10 9 9 9 9 8 8 8 8 8 8 7 7 7 7 7 7 7 7 7
21 21 21 21 22 22 21 21 22 22 22 22 21 20 19 18 17 15 14 13 12 11 10 10 10 9 9 9 8 8 8 8 8 8 7 7 7 7 7 7 7 7 7 7
21 21 21 21 21 21 20 20 21 21 21 21 21 20 19 17 16 15 13 13 12 11 10 10 9 9 9 9 8 8 8 7 7 7 7 7 7 7 7 7 7 7 7 7
20 20 21 21 20 19 20 20 20 20 20 20 20 19 18 17 15 14 13 13 12 11 10 10 9 9 8 8 8 8 7 7 7 7 7 7 7 7 7 7 6 6 6 6
20 20 20 20 20 20 20 20 20 20 19 19 19 18 17 16 15 14 13 12 12 11 10 9 9 9 8 8 8 7 7 7 7 7 7 7 7 7 7 6 6 6 6 6
20 20 20 20 19 19 19 20 19 19 19 19 18 18 16 16 17 15 12 12 11 10 9 9 9 8 8 8 7 7 7 7 7 7 7 7 7 7 6 6 6 6 6 6
20 19 20 20 20 19 19 19 19 19 18 18 17 17 16 16 16 13 12 11 10 10 9 9 9 8 8 8 7 7 7 7 7 7 7 7 7 6 6 6 6 6 6 6
20 20 19 20 19 19 18 19 19 18 17 17 16 16 15 14 13 12 11 10 10 9 9 9 8 8 8 7 7 7 7 7 7 7 7 7 7 7 6 6 6 6 6 6
19 19 20 19 19 17 17 17 16 16 16 16 16 15 14 13 12 12 11 10 10 9 9 9 8 8 8 7 7 7 7 7 7 7 7 7 7 6 6 6 6 7 7 7
18 18 19 18 18 17 16 16 16 16 16 15 15 14 13 13 12 11 11 10 9 9 9 8 8 8 8 8 7 7 7 7 7 7 7 7 7 7 7 7 7 7 7 7
19 18 18 18 18 17 16 16 15 15 14 14 14 13 13 13 12 11 11 10 10 9 9 9 8 8 8 8 8 7 7 7 7 7 7 7 7 7 7 7 7 7 7 7
19 19 19 19 18 18 17 15 15 14 14 14 13 13 12 12 11 11 11 10 9 9 9 8 8 8 8 8 8 7 7 7 7 7 7 8 8 8 8 8 7 7 7 7